Tracking 18984 objects as of 23-Feb-2018
HD Live streaming from Space Station
objects crossing your sky now

FENGYUN 1C DEB

Track FENGYUN 1C DEB now!
10-day predictions


NORAD ID: 30359
Int'l Code: 1999-025ABW
Perigee: 833.8 km
Apogee: 1,107.1 km
Inclination: 101.6 °
Period: 104.3 minutes
Semi major axis: 7341 km
RCS: 0.0165 m2 (small)
Launch date: May 10, 1999
Source: People's Republic of China (PRC)
Launch site: Taiyaun Space Center, China (TSC)

Note: This is SATELLITE DEBRIS
aabbcc
Your satellite tracking list
Your tracking list is empty




NASA's NSSDC Master Catalog

Two Line Element Set (TLE):
1 30359U 99025ABW 18054.52466448  .00000904  00000-0  81380-3 0  9998
2 30359 101.6374 253.0405 0186105 113.8143 274.4657 13.80156523556921
Source of the keplerian elements: AFSPC